This is the latest recevied weather packets stored in our database for station/object DC0PP-10. If no packets are shown the sender has not sent any weather packets the latest 10 day(s).
| Time | Temp. | Humidity | Pressure | Rain* | Wind** | Luminosity | Snow |
|---|---|---|---|---|---|---|---|
| 1777496134 | 16.67° C | 30% | 1022.7 hPa | - | - | - | - |
| 1777495234 | 16.11° C | 31% | 1022.7 hPa | - | - | - | - |
| 1777494334 | 16.11° C | 31% | 1022.6 hPa | - | - | - | - |
| 1777493434 | 16.67° C | 33% | 1022.6 hPa | - | - | - | - |
| 1777492534 | 16.67° C | 30% | 1022.3 hPa | - | - | - | - |
| 1777491633 | 17.22° C | 29% | 1022.1 hPa | - | - | - | - |
| 1777490733 | 17.22° C | 29% | 1022 hPa | - | - | - | - |
| 1777489833 | 17.78° C | 29% | 1021.8 hPa | - | - | - | - |
| 1777488933 | 17.78° C | 29% | 1021.5 hPa | - | - | - | - |
| 1777488032 | 18.33° C | 30% | 1021.4 hPa | - | - | - | - |
| 1777487136 | 18.89° C | 31% | 1021.3 hPa | - | - | - | - |
| 1777486236 | 19.44° C | 32% | 1021.1 hPa | - | - | - | - |
| 1777485335 | 20° C | 32% | 1020.9 hPa | - | - | - | - |
| 1777484435 | 20° C | 29% | 1020.7 hPa | - | - | - | - |
| 1777483535 | 20.56° C | 30% | 1020.6 hPa | - | - | - | - |
| 1777482635 | 21.11° C | 30% | 1020.6 hPa | - | - | - | - |
| 1777481735 | 21.67° C | 31% | 1020.5 hPa | - | - | - | - |
| 1777480835 | 21.67° C | 30% | 1020.5 hPa | - | - | - | - |
| 1777479935 | 21.67° C | 30% | 1020.2 hPa | - | - | - | - |
| 1777479034 | 22.78° C | 30% | 1020.2 hPa | - | - | - | - |
| 1777478134 | 23.33° C | 30% | 1020 hPa | - | - | - | - |
| 1777477234 | 22.78° C | 30% | 1020.3 hPa | - | - | - | - |
| 1777476334 | 23.33° C | 29% | 1019.9 hPa | - | - | - | - |
| 1777475434 | 23.89° C | 27% | 1019.9 hPa | - | - | - | - |
| 1777474534 | 24.44° C | 27% | 1019.7 hPa | - | - | - | - |
* Rain since midnight (hover to see other rain measurements)
** Current wind speed in m/s (hover to see current wind gust speed)